Temp
4 4 4 4 4 4 4 4 4 4 4 4 4 4 4 4 4 4 3 3 3 4 4 4 4 4 4 4 4 4 4 4 3 3 3 3 3 3 3 3 3 4 4 3 3 3 3 3 3 2 2 2 3 3 3 3 3 3 3 3 2 2 2 2 2 2 2 2 1 1 1 1 1 1 1 1 1 1 2 2 2 2 2 2 2 2
4 4 4 4 4 4 4 4 4 4 4 4 4 4 3 3 3 3 4 4 4 4 4 4 4 4 4 4 4 4 3 3 3 3 3 3 3 3 3 3 3 3 3 3 3 3 3 2 2 2 2 2 2 2 2 2 2 2 2 2 2 2 2 2 2 1 1 1 1 1 1 1 1 1 1 1 1 1 2 2 2 2 2 2 2 2
4 4 4 4 4 4 4 4 4 4 4 3 3 3 3 3 3 3 4 4 4 4 4 4 4 4 4 3 3 3 3 3 3 3 3 3 3 3 3 3 3 3 3 3 2 2 2 2 2 1 2 2 2 2 2 2 2 2 2 2 2 2 1 1 1 1 1 1 1 1 1 1 1 1 1 1 1 1 1 1 1 1 1 2 2 2
4 4 4 4 4 4 3 3 3 3 3 3 3 3 3 3 3 3 4 4 4 4 4 3 3 3 3 3 3 3 3 3 2 2 2 2 2 2 2 2 2 2 2 2 2 2 2 1 1 1 1 1 1 1 1 2 2 2 2 2 1 1 1 1 1 1 1 1 1 0 0 1 1 1 1 1 1 1 1 1 1 1 1 2 2 2
4 4 4 3 3 3 3 3 3 3 3 3 3 3 3 3 3 3 3 3 3 3 3 3 3 3 3 3 3 3 2 2 2 2 2 2 2 2 2 2 2 1 1 1 1 1 1 1 1 1 1 1 1 1 1 1 1 1 1 1 1 1 1 1 1 1 1 1 1 1 1 1 1 1 1 1 1 1 1 1 1 1 1 1 1 1
4 3 3 3 3 3 3 3 3 3 3 3 3 3 3 3 3 3 3 3 3 3 3 3 3 3 3 2 2 2 2 2 2 2 2 2 2 2 1 1 1 1 1 1 1 1 1 1 1 1 1 1 1 1 1 1 1 1 1 1 1 1 1 1 1 1 1 1 1 1 1 1 1 1 1 1 1 1 1 1 1 1 1 1 1 0
3 3 3 3 3 3 2 3 3 3 2 2 2 3 3 3 3 3 3 3 3 3 3 2 2 2 2 2 2 2 2 2 2 1 1 1 1 1 1 1 1 0 0 0 1 1 1 1 1 1 1 1 1 1 1 1 1 1 1 1 1 1 1 1 1 1 1 1 1 1 1 1 1 0 0 0 0 0 1 1 1 1 0 0 0 0
3 3 3 2 2 2 2 2 2 2 2 2 2 2 2 2 2 3 3 3 3 2 2 2 2 2 2 2 2 2 1 1 1 1 1 1 1 0 0 0 0 0 0 0 0 0 0 0 0 0 0 0 0 0 0 0 0 0 0 0 0 0 0 0 0 1 1 0 0 0 0 0 0 0 0 0 0 0 0 1 1 0 0 0 0 0
2 2 2 2 2 2 1 2 2 2 2 2 2 2 2 2 2 2 2 2 2 2 2 1 1 1 1 1 1 1 1 1 1 0 0 0 0 0 -0 -0 -0 -0 -0 -0 -0 -0 -0 -0 -0 -0 -0 -0 -0 -0 -0 -0 -0 -0 -0 -0 -0 -0 0 0 0 0 0 0 0 0 0 0 0 0 0 0 0 0 0 0 0 0 0 0 0 0
2 2 2 2 2 2 1 1 2 2 2 2 2 2 2 2 2 2 2 2 1 1 1 1 1 1 0 0 1 1 1 0 0 0 0 -0 -0 -0 -0 -0 -0 -0 -1 -0 -0 -0 -1 -1 -1 -1 -1 -1 -1 -1 -1 -1 -1 -1 -1 -1 -0 -0 -0 -0 -0 -0 0 0 0 0 0 0 0 0 -0 -0 0 0 0 -0 -0 -0 -0 -0 0 0
2 2 2 2 2 2 2 2 2 2 2 2 2 2 2 2 1 1 1 1 1 1 1 1 0 0 0 0 0 0 0 0 -0 -0 -0 -0 -0 -0 -0 -1 -1 -1 -1 -1 -1 -1 -1 -1 -1 -1 -1 -1 -1 -1 -1 -1 -1 -1 -1 -1 -1 -0 -0 -0 -0 -0 -0 -0 -0 -0 -0 -0 -0 -0 -0 -0 -0 -0 -0 -0 -0 -0 -0 -0 -0 0
2 2 1 2 2 2 2 2 2 2 2 2 2 2 1 1 1 1 1 1 1 0 0 0 -0 -0 -0 0 0 0 -0 -0 -1 -1 -1 -1 -1 -1 -1 -1 -1 -1 -1 -1 -1 -1 -1 -1 -1 -1 -1 -2 -2 -2 -2 -2 -2 -1 -1 -1 -1 -1 -0 -0 -0 -0 -0 -0 -0 -0 -0 -0 -0 -0 -0 -0 -0 -0 -0 -0 -0 -0 -0 -0 -0 -0
1 1 1 1 2 2 2 2 2 2 2 2 1 1 1 1 0 0 0 0 0 0 0 -0 -0 -0 -0 0 0 -0 -1 -1 -1 -1 -1 -1 -1 -1 -1 -1 -1 -1 -1 -1 -1 -2 -2 -2 -2 -2 -2 -2 -2 -2 -2 -2 -2 -2 -1 -1 -1 -1 -1 -1 -1 -1 -1 -1 -0 -0 -0 -0 -0 -0 -0 -0 -0 -0 -0 -0 -0 -0 -0 -0 -0 -0
1 1 1 1 2 2 2 1 1 1 1 1 1 0 0 -0 -0 -0 -0 -0 -0 -0 -0 -0 -0 -0 -0 0 0 -0 -1 -1 -2 -2 -2 -2 -2 -2 -2 -2 -2 -2 -2 -2 -2 -2 -2 -2 -2 -2 -3 -3 -3 -3 -3 -2 -2 -2 -2 -1 -1 -1 -1 -1 -1 -1 -1 -1 -1 -1 -1 -1 -1 -1 -1 -1 -1 -1 -1 -1 -1 -1 -1 -1 -1 -0
1 1 1 2 2 1 1 1 1 1 1 0 -0 -0 -0 -0 -0 -0 -0 -0 -0 -0 -1 -1 -1 -0 -0 0 0 -1 -1 -2 -2 -2 -3 -3 -2 -2 -2 -2 -2 -2 -2 -2 -2 -2 -2 -3 -3 -3 -3 -3 -3 -3 -3 -3 -2 -2 -2 -2 -1 -1 -1 -1 -1 -1 -1 -1 -1 -1 -1 -1 -1 -1 -1 -1 -1 -1 -1 -1 -1 -1 -1 -1 -1 -1
1 1 1 1 1 1 0 0 0 -0 -0 -1 -1 -1 -0 -0 -0 -0 -0 -0 -1 -1 -1 -1 -1 -1 -0 -0 -0 -1 -2 -2 -3 -3 -3 -3 -3 -3 -2 -2 -2 -2 -2 -3 -3 -3 -3 -3 -3 -3 -3 -4 -3 -3 -3 -3 -2 -2 -2 -2 -2 -1 -1 -1 -1 -1 -1 -1 -1 -1 -1 -1 -1 -1 -1 -1 -1 -1 -1 -1 -1 -1 -1 -1 -1 -1
1 1 0 0 0 0 -0 -0 -0 -1 -1 -1 -1 -1 -1 -1 -1 -1 -1 -1 -1 -1 -1 -1 -1 -1 -1 -1 -1 -2 -2 -3 -3 -4 -4 -4 -3 -3 -2 -2 -3 -3 -3 -3 -3 -3 -3 -3 -4 -4 -4 -4 -4 -3 -3 -3 -3 -2 -2 -2 -2 -2 -2 -2 -2 -2 -2 -2 -2 -1 -1 -1 -1 -1 -1 -1 -1 -1 -1 -1 -1 -1 -1 -1 -1 -1
0 -0 -1 -1 -1 -1 -1 -1 -1 -1 -1 -1 -1 -1 -1 -1 -1 -1 -2 -2 -2 -2 -2 -2 -1 -1 -1 -2 -2 -3 -3 -3 -4 -4 -4 -3 -3 -3 -3 -3 -3 -3 -3 -3 -4 -4 -4 -4 -4 -4 -4 -4 -4 -4 -3 -3 -3 -3 -2 -2 -2 -2 -2 -2 -2 -2 -2 -2 -2 -2 -2 -2 -2 -2 -2 -2 -2 -2 -2 -2 -1 -1 -1 -1 -1 -1
-1 -1 -1 -1 -1 -1 -1 -1 -1 -1 -1 -1 -1 -1 -1 -2 -2 -2 -2 -2 -2 -2 -2 -2 -2 -2 -3 -3 -3 -3 -3 -4 -4 -4 -4 -3 -3 -3 -3 -3 -3 -4 -4 -4 -4 -4 -4 -4 -4 -4 -5 -4 -4 -4 -3 -3 -3 -3 -3 -3 -3 -3 -3 -3 -3 -3 -2 -2 -2 -2 -2 -2 -2 -2 -2 -2 -2 -2 -2 -2 -2 -2 -1 -1 -1 -1
-1 -1 -1 -1 -1 -1 -1 -1 -1 -1 -1 -2 -2 -2 -2 -3 -3 -3 -3 -3 -3 -3 -3 -3 -3 -3 -4 -4 -4 -4 -4 -4 -4 -4 -3 -3 -3 -3 -3 -3 -3 -4 -4 -4 -4 -4 -4 -4 -5 -5 -5 -5 -4 -4 -4 -3 -3 -3 -3 -3 -3 -3 -3 -3 -3 -3 -3 -3 -3 -2 -2 -2 -2 -2 -2 -2 -2 -2 -2 -2 -2 -2 -2 -2 -2 -1
-1 -1 -1 -1 -1 -1 -1 -1 -1 -2 -2 -2 -2 -3 -3 -3 -3 -3 -3 -3 -4 -4 -4 -4 -4 -4 -4 -4 -4 -4 -4 -4 -4 -4 -4 -3 -3 -3 -3 -3 -4 -4 -4 -4 -4 -4 -4 -5 -5 -5 -5 -5 -4 -4 -4 -4 -4 -4 -4 -3 -3 -3 -3 -3 -3 -3 -3 -3 -3 -3 -3 -3 -3 -2 -2 -2 -2 -2 -2 -2 -2 -2 -2 -2 -2 -2
-1 -2 -1 -1 -1 -1 -1 -1 -1 -2 -2 -2 -3 -3 -3 -3 -3 -3 -4 -4 -4 -4 -4 -5 -5 -5 -4 -4 -4 -4 -4 -4 -4 -4 -4 -3 -3 -3 -3 -4 -4 -4 -4 -4 -4 -4 -5 -5 -5 -5 -5 -5 -4 -4 -4 -4 -4 -4 -4 -4 -4 -4 -4 -4 -4 -4 -3 -3 -3 -3 -3 -3 -3 -3 -3 -3 -2 -2 -2 -2 -2 -2 -2 -2 -2 -2
-2 -2 -2 -2 -2 -2 -2 -1 -2 -2 -2 -2 -3 -3 -3 -3 -4 -4 -4 -4 -5 -5 -5 -5 -5 -5 -4 -4 -4 -4 -4 -4 -4 -4 -4 -4 -3 -3 -4 -4 -4 -4 -4 -4 -4 -5 -5 -5 -5 -5 -5 -5 -5 -5 -4 -4 -4 -4 -4 -4 -4 -4 -4 -4 -4 -4 -4 -4 -3 -3 -3 -3 -3 -3 -3 -3 -3 -3 -3 -2 -2 -2 -2 -2 -2 -1
-2 -2 -2 -2 -2 -2 -2 -2 -2 -2 -2 -2 -3 -3 -3 -3 -3 -4 -4 -4 -5 -5 -5 -5 -5 -5 -4 -4 -4 -4 -4 -4 -4 -4 -4 -4 -4 -4 -4 -4 -4 -4 -4 -4 -4 -5 -5 -5 -5 -5 -5 -5 -5 -5 -5 -5 -5 -4 -4 -4 -4 -4 -4 -4 -4 -4 -4 -4 -4 -3 -3 -3 -3 -3 -3 -3 -3 -3 -3 -2 -2 -2 -2 -2 -2 -2
-2 -2 -2 -2 -2 -3 -2 -2 -2 -2 -2 -2 -3 -3 -4 -4 -4 -4 -4 -5 -5 -5 -5 -5 -5 -4 -4 -4 -4 -4 -4 -4 -4 -4 -4 -4 -4 -4 -4 -4 -4 -4 -4 -4 -5 -5 -5 -5 -5 -5 -5 -5 -5 -5 -5 -5 -5 -5 -5 -5 -5 -5 -4 -4 -4 -4 -4 -4 -4 -4 -4 -3 -3 -3 -3 -3 -3 -3 -3 -2 -2 -2 -2 -2 -2 -2
-3 -3 -3 -3 -3 -3 -3 -3 -3 -2 -2 -2 -3 -3 -4 -4 -4 -4 -5 -5 -5 -5 -5 -5 -4 -4 -4 -4 -4 -4 -4 -4 -4 -4 -4 -4 -4 -4 -4 -4 -4 -4 -4 -4 -5 -5 -5 -5 -5 -5 -5 -5 -5 -5 -5 -5 -5 -5 -5 -5 -5 -5 -5 -5 -5 -4 -4 -4 -4 -4 -4 -4 -3 -3 -3 -3 -3 -3 -3 -3 -2 -2 -2 -2 -2 -2
-3 -3 -3 -3 -3 -3 -3 -3 -3 -3 -3 -3 -3 -3 -4 -4 -4 -5 -5 -5 -5 -5 -5 -4 -4 -4 -4 -4 -4 -4 -4 -4 -4 -4 -4 -5 -5 -4 -4 -4 -4 -4 -5 -4 -4 -4 -4 -4 -4 -4 -5 -5 -5 -5 -5 -5 -5 -5 -5 -5 -5 -5 -5 -5 -5 -5 -4 -4 -4 -4 -4 -4 -4 -4 -3 -3 -3 -3 -3 -3 -2 -2 -2 -2 -3 -3
-3 -3 -4 -4 -4 -4 -4 -3 -3 -3 -3 -3 -3 -4 -4 -4 -4 -5 -5 -5 -5 -5 -5 -4 -4 -4 -4 -4 -4 -4 -4 -4 -4 -4 -5 -5 -5 -4 -4 -4 -5 -5 -5 -4 -4 -4 -4 -4 -4 -5 -5 -5 -5 -5 -5 -5 -5 -5 -5 -5 -5 -5 -5 -5 -5 -5 -5 -4 -4 -4 -4 -4 -4 -4 -4 -3 -3 -3 -3 -3 -3 -2 -2 -3 -3 -3
-3 -4 -4 -4 -4 -4 -4 -4 -4 -4 -4 -4 -4 -4 -4 -4 -4 -4 -5 -5 -5 -5 -4 -4 -4 -4 -4 -4 -4 -4 -4 -4 -4 -4 -5 -5 -5 -4 -4 -4 -5 -5 -5 -5 -5 -5 -5 -5 -5 -5 -5 -5 -5 -5 -5 -5 -5 -5 -5 -5 -5 -6 -6 -5 -5 -5 -5 -5 -5 -4 -4 -4 -4 -4 -4 -4 -3 -3 -3 -3 -3 -3 -3 -3 -3 -3
-4 -4 -4 -4 -4 -4 -4 -4 -4 -4 -4 -4 -4 -4 -4 -4 -4 -4 -4 -4 -5 -5 -5 -4 -4 -4 -4 -4 -4 -4 -4 -4 -4 -5 -5 -5 -5 -4 -5 -5 -5 -5 -5 -5 -5 -5 -5 -5 -5 -5 -5 -5 -5 -5 -5 -5 -5 -5 -5 -6 -6 -6 -6 -6 -5 -5 -5 -5 -5 -5 -5 -4 -4 -4 -4 -4 -4 -3 -3 -3 -3 -3 -3 -3 -3 -3
-5 -4 -4 -4 -4 -4 -4 -4 -4 -4 -4 -4 -4 -4 -4 -4 -4 -4 -4 -4 -4 -4 -5 -4 -4 -4 -4 -4 -4 -4 -4 -4 -4 -5 -5 -5 -5 -5 -5 -5 -5 -5 -5 -5 -5 -5 -5 -5 -5 -5 -5 -5 -6 -6 -6 -6 -6 -6 -6 -6 -6 -6 -6 -6 -5 -5 -5 -5 -5 -5 -5 -5 -4 -4 -4 -4 -4 -4 -4 -3 -3 -3 -3 -3 -3 -3
-5 -5 -5 -4 -4 -4 -4 -4 -4 -4 -4 -4 -4 -4 -4 -4 -4 -4 -4 -4 -4 -4 -4 -4 -4 -4 -4 -4 -4 -4 -4 -4 -5 -5 -5 -5 -5 -5 -5 -5 -5 -5 -5 -6 -6 -6 -5 -5 -5 -5 -6 -6 -6 -6 -6 -6 -6 -6 -6 -6 -6 -6 -6 -6 -6 -6 -5 -5 -5 -5 -5 -5 -5 -4 -4 -4 -4 -4 -4 -3 -3 -3 -3 -3 -3 -3
-5 -5 -5 -4 -4 -4 -4 -4 -4 -4 -4 -4 -4 -4 -4 -4 -4 -4 -4 -4 -4 -4 -4 -4 -5 -5 -5 -5 -4 -4 -4 -5 -5 -5 -5 -6 -6 -5 -5 -6 -6 -6 -6 -6 -6 -6 -6 -6 -6 -6 -6 -6 -6 -6 -6 -6 -6 -6 -6 -6 -6 -6 -6 -6 -6 -6 -6 -5 -5 -5 -5 -5 -5 -5 -5 -5 -4 -4 -4 -4 -4 -3 -3 -3 -3 -3
-5 -5 -5 -5 -5 -5 -5 -5 -4 -4 -4 -4 -4 -4 -4 -4 -4 -4 -4 -4 -4 -4 -4 -4 -4 -5 -5 -5 -5 -5 -5 -5 -5 -5 -6 -6 -6 -6 -6 -6 -6 -6 -6 -6 -6 -6 -6 -6 -6 -6 -6 -6 -6 -6 -6 -6 -6 -6 -6 -6 -6 -6 -6 -6 -6 -6 -6 -5 -5 -5 -5 -5 -5 -5 -5 -5 -5 -4 -4 -4 -4 -4 -4 -3 -3 -3
-6 -5 -5 -5 -5 -5 -5 -5 -5 -5 -4 -4 -4 -4 -4 -4 -4 -4 -4 -4 -4 -4 -4 -4 -4 -4 -5 -5 -5 -5 -5 -5 -5 -5 -6 -6 -6 -6 -6 -6 -6 -6 -6 -6 -6 -6 -6 -6 -6 -6 -6 -6 -6 -6 -6 -6 -6 -6 -6 -6 -6 -6 -6 -6 -6 -6 -6 -5 -5 -5 -5 -5 -5 -5 -5 -5 -5 -5 -4 -4 -4 -4 -4 -4 -3 -3
-6 -6 -5 -5 -6 -6 -6 -5 -5 -5 -5 -4 -4 -4 -4 -4 -4 -4 -4 -4 -4 -4 -4 -4 -4 -4 -4 -5 -5 -5 -5 -5 -5 -5 -6 -6 -6 -6 -6 -6 -6 -6 -7 -7 -7 -7 -7 -7 -7 -6 -6 -6 -6 -6 -6 -6 -6 -6 -6 -6 -6 -6 -6 -6 -6 -6 -6 -5 -5 -5 -5 -5 -5 -5 -5 -5 -5 -5 -5 -4 -4 -4 -4 -4 -4 -4
-6 -6 -6 -6 -6 -6 -6 -6 -5 -5 -5 -5 -4 -4 -4 -4 -4 -4 -4 -4 -4 -4 -4 -4 -4 -4 -4 -5 -5 -5 -5 -5 -5 -5 -6 -6 -6 -6 -6 -6 -7 -7 -7 -7 -7 -7 -7 -7 -7 -7 -7 -7 -7 -6 -6 -6 -6 -6 -6 -6 -6 -6 -6 -6 -6 -6 -6 -5 -5 -5 -5 -5 -5 -5 -5 -5 -5 -5 -5 -4 -4 -4 -4 -4 -4 -4
-6 -6 -6 -6 -6 -6 -6 -6 -5 -5 -5 -5 -5 -4 -4 -4 -4 -4 -4 -4 -4 -4 -4 -4 -4 -4 -4 -5 -5 -5 -5 -5 -5 -6 -6 -6 -6 -6 -6 -7 -7 -7 -7 -7 -7 -7 -7 -7 -7 -7 -7 -7 -7 -7 -7 -7 -7 -7 -6 -6 -6 -6 -6 -6 -6 -6 -6 -5 -5 -5 -5 -5 -6 -6 -6 -5 -5 -5 -5 -5 -4 -4 -4 -4 -4 -4
-6 -6 -6 -6 -6 -6 -6 -6 -6 -5 -5 -5 -5 -4 -4 -4 -4 -4 -4 -4 -4 -4 -4 -4 -4 -4 -5 -5 -5 -5 -5 -5 -6 -6 -6 -6 -6 -6 -6 -7 -7 -7 -7 -7 -7 -7 -7 -7 -7 -7 -7 -7 -7 -7 -7 -7 -7 -7 -7 -6 -6 -6 -6 -6 -6 -6 -6 -6 -6 -6 -6 -6 -6 -6 -6 -6 -6 -6 -5 -5 -5 -5 -4 -4 -4 -4
-6 -6 -6 -6 -6 -6 -6 -6 -5 -5 -5 -5 -5 -5 -4 -4 -4 -4 -4 -4 -4 -4 -4 -4 -4 -4 -4 -5 -5 -5 -6 -6 -6 -6 -6 -6 -7 -7 -7 -7 -7 -7 -7 -7 -8 -8 -8 -8 -8 -7 -7 -7 -7 -7 -7 -7 -7 -7 -7 -6 -6 -6 -6 -6 -6 -6 -6 -6 -6 -6 -6 -6 -6 -6 -6 -6 -6 -6 -6 -5 -5 -5 -5 -4 -4 -4
-6 -6 -6 -6 -6 -6 -6 -6 -5 -5 -5 -5 -5 -5 -4 -4 -4 -4 -4 -4 -4 -4 -4 -4 -4 -4 -4 -5 -5 -5 -6 -6 -6 -6 -6 -7 -7 -7 -7 -7 -7 -7 -8 -8 -8 -8 -8 -8 -8 -8 -8 -8 -8 -8 -8 -7 -7 -7 -7 -6 -6 -6 -6 -6 -6 -6 -6 -6 -6 -6 -6 -6 -6 -6 -6 -6 -6 -6 -5 -5 -5 -5 -5 -4 -4 -4
-7 -7 -7 -7 -6 -6 -6 -6 -5 -5 -5 -5 -5 -5 -5 -4 -4 -4 -4 -4 -4 -5 -5 -5 -5 -5 -5 -5 -5 -5 -6 -6 -6 -6 -7 -7 -7 -7 -7 -7 -8 -8 -8 -8 -8 -8 -8 -8 -8 -8 -8 -8 -8 -8 -8 -8 -7 -7 -7 -6 -6 -6 -6 -6 -6 -6 -6 -6 -6 -6 -6 -6 -6 -6 -6 -6 -6 -5 -5 -5 -5 -5 -5 -4 -4 -4
-7 -7 -7 -7 -6 -6 -6 -6 -5 -5 -5 -5 -5 -5 -5 -5 -4 -4 -4 -5 -5 -5 -5 -5 -5 -6 -6 -6 -6 -6 -6 -6 -6 -7 -7 -7 -7 -7 -8 -8 -8 -8 -8 -8 -8 -8 -8 -8 -8 -8 -7 -8 -8 -8 -8 -8 -7 -7 -7 -6 -6 -6 -6 -6 -6 -6 -6 -6 -6 -6 -6 -6 -6 -6 -6 -6 -5 -5 -5 -5 -4 -4 -4 -4 -4 -4
-7 -7 -7 -7 -6 -6 -6 -6 -6 -5 -5 -5 -5 -5 -5 -5 -5 -5 -5 -5 -5 -5 -5 -6 -6 -6 -6 -6 -6 -6 -6 -6 -7 -7 -7 -7 -8 -8 -8 -8 -8 -8 -8 -8 -8 -8 -8 -7 -7 -7 -7 -7 -7 -8 -8 -7 -7 -7 -6 -6 -6 -6 -6 -6 -6 -6 -6 -6 -6 -6 -6 -6 -6 -6 -6 -6 -5 -5 -5 -4 -4 -4 -4 -4 -4 -4
-7 -7 -7 -7 -7 -6 -6 -6 -6 -5 -5 -5 -5 -5 -5 -5 -5 -5 -5 -5 -5 -5 -6 -6 -6 -6 -6 -6 -6 -6 -6 -7 -7 -7 -7 -8 -8 -8 -8 -8 -8 -8 -7 -7 -7 -7 -7 -7 -7 -7 -6 -7 -7 -7 -7 -7 -7 -7 -6 -6 -6 -6 -6 -6 -6 -6 -6 -6 -6 -6 -6 -6 -6 -6 -6 -6 -5 -5 -5 -4 -4 -4 -4 -4 -4 -4
-7 -7 -7 -7 -7 -6 -6 -6 -6 -6 -5 -5 -5 -5 -5 -5 -5 -5 -5 -5 -5 -6 -6 -6 -6 -7 -7 -7 -7 -7 -7 -7 -7 -7 -8 -8 -8 -8 -8 -8 -8 -8 -7 -7 -7 -7 -7 -7 -7 -6 -6 -6 -6 -6 -6 -7 -7 -6 -6 -6 -6 -6 -6 -6 -6 -6 -6 -6 -6 -6 -6 -6 -6 -6 -6 -5 -5 -5 -5 -4 -4 -4 -4 -4 -4 -4
-7 -7 -7 -7 -7 -7 -6 -6 -6 -6 -6 -5 -5 -5 -5 -5 -5 -5 -5 -5 -6 -6 -6 -6 -6 -7 -7 -7 -7 -7 -7 -8 -8 -8 -8 -8 -8 -9 -9 -8 -8 -8 -7 -7 -7 -7 -6 -6 -6 -6 -6 -6 -6 -6 -6 -6 -6 -6 -6 -6 -6 -6 -6 -6 -6 -6 -6 -6 -6 -6 -6 -6 -6 -6 -6 -5 -5 -5 -5 -4 -4 -4 -4 -4 -4 -4
-8 -8 -7 -7 -7 -7 -7 -6 -6 -6 -6 -5 -6 -6 -6 -6 -6 -6 -6 -6 -6 -6 -7 -7 -7 -7 -7 -7 -7 -7 -8 -8 -8 -8 -9 -9 -9 -9 -9 -9 -8 -8 -7 -7 -7 -6 -6 -6 -6 -6 -6 -6 -6 -6 -6 -6 -6 -6 -6 -6 -6 -6 -6 -6 -6 -6 -6 -6 -6 -6 -6 -6 -6 -6 -5 -5 -5 -5 -5 -4 -4 -4 -4 -4 -4 -4
-8 -8 -7 -7 -7 -7 -7 -7 -6 -6 -6 -6 -6 -6 -6 -6 -6 -6 -6 -6 -6 -7 -7 -7 -7 -7 -7 -7 -7 -7 -8 -8 -8 -9 -9 -9 -9 -9 -9 -9 -8 -8 -8 -7 -7 -6 -6 -5 -5 -5 -5 -5 -6 -6 -6 -6 -6 -6 -6 -6 -6 -6 -6 -6 -6 -6 -6 -6 -6 -6 -6 -5 -5 -5 -5 -5 -5 -5 -4 -4 -4 -4 -4 -3 -3 -3
-8 -8 -8 -7 -7 -7 -7 -7 -7 -6 -6 -6 -6 -6 -6 -6 -6 -6 -6 -6 -7 -7 -7 -7 -7 -7 -7 -7 -7 -8 -8 -8 -9 -9 -9 -9 -9 -9 -9 -9 -8 -8 -8 -7 -7 -7 -6 -5 -5 -5 -5 -5 -5 -5 -6 -6 -6 -6 -6 -6 -6 -6 -6 -6 -6 -6 -6 -6 -6 -6 -5 -5 -5 -5 -5 -5 -5 -4 -4 -4 -4 -4 -4 -3 -3 -3
-8 -8 -8 -8 -7 -7 -7 -7 -7 -6 -6 -6 -6 -6 -6 -6 -6 -6 -6 -6 -7 -7 -7 -7 -7 -7 -7 -7 -8 -8 -8 -9 -9 -9 -9 -9 -9 -9 -9 -9 -8 -8 -8 -8 -7 -7 -7 -6 -6 -5 -5 -5 -5 -6 -6 -6 -6 -6 -6 -6 -6 -6 -6 -6 -6 -6 -6 -6 -6 -5 -5 -5 -5 -5 -5 -5 -5 -4 -4 -4 -4 -4 -4 -3 -3 -3
Height
795 795 795 794 794 793 793 793 792 792 791 791 791 790 790 789 788 788 787 787 786 785 785 784 784 783 782 782 781 780 780 779 778 777 776 775 775 774 772 771 770 769 768 767 766 765 764 762 761 760 759 758 757 756 755 754 753 751 750 748 747 746 745 745 743 742 741 740 739 738 737 736 735 735 734 733 732 731 730 730 730 729 728 727 726 726
795 795 794 794 793 793 792 792 792 791 791 790 790 789 789 788 787 787 786 786 785 785 784 783 782 782 781 780 780 779 778 777 777 776 775 774 773 772 771 770 769 768 767 766 765 764 762 761 760 759 758 756 755 755 754 752 751 750 749 747 746 745 744 743 742 741 740 739 738 737 736 735 734 733 732 731 730 729 728 728 727 727 726 726 725 724
795 794 794 794 793 793 792 791 791 791 790 790 789 788 788 787 786 785 785 785 784 784 783 782 781 780 780 779 779 778 777 776 776 775 774 773 772 771 770 769 768 767 766 765 764 763 761 760 759 758 757 755 754 753 752 751 750 749 748 746 745 744 743 742 741 740 739 738 737 736 735 734 733 731 730 730 729 728 726 726 725 725 725 724 723 722
795 794 794 793 793 792 791 791 790 790 790 789 788 787 787 786 785 785 784 784 783 782 782 781 780 780 779 778 778 777 776 775 775 774 773 772 771 770 769 768 767 766 765 764 763 761 760 759 758 757 756 755 753 752 751 750 749 747 746 745 743 742 742 741 740 739 738 737 736 735 734 732 731 730 729 728 727 726 725 724 724 724 723 723 721 720
795 794 794 793 792 792 791 790 790 789 788 788 787 786 786 785 785 784 783 783 782 781 780 780 779 779 778 777 776 776 775 775 774 773 772 771 770 769 768 767 766 765 764 763 761 760 759 758 757 756 755 753 752 751 750 748 747 746 745 744 743 742 741 740 739 738 737 735 734 733 732 730 729 728 727 727 726 725 724 723 723 722 722 721 720 719
795 794 794 793 792 791 790 790 789 788 787 786 786 785 785 784 783 783 782 781 781 780 780 779 778 778 777 776 775 775 774 774 773 772 771 770 769 768 767 766 765 764 763 762 760 760 758 757 756 755 753 752 751 750 748 747 746 745 744 743 742 741 740 739 738 736 735 734 733 731 730 729 728 727 726 725 724 723 722 722 722 721 720 719 719 718
794 794 793 793 792 791 790 789 788 788 787 786 785 784 784 783 782 781 780 780 780 779 779 778 778 777 776 775 775 774 773 773 772 771 770 769 768 767 766 765 764 763 762 761 760 758 757 756 755 753 752 751 750 748 747 746 745 743 742 741 740 740 739 738 736 735 734 733 731 730 729 727 726 725 725 724 723 722 721 721 720 719 718 718 717 716
794 793 793 792 791 790 790 789 788 787 786 785 784 783 782 781 781 781 780 779 779 778 778 777 777 776 776 775 774 773 772 771 770 770 769 768 767 766 765 764 763 762 761 760 759 757 756 755 754 752 751 750 748 747 746 745 743 742 741 740 740 739 738 736 735 734 733 731 730 729 727 726 725 724 723 722 722 721 720 720 718 718 717 716 715 715
794 793 792 792 791 790 788 787 786 786 786 785 784 783 781 780 780 780 780 779 779 778 777 776 776 775 775 774 773 772 771 770 770 769 768 767 766 765 764 763 762 761 760 759 757 756 755 754 753 751 750 749 747 746 745 744 742 741 740 740 739 738 737 735 734 733 731 730 729 727 726 725 724 723 722 721 721 720 719 718 717 716 715 715 713 713
794 793 792 791 791 790 789 786 785 785 785 784 784 783 782 781 779 778 778 778 778 778 777 776 775 774 773 773 772 772 770 770 769 768 768 767 765 765 763 762 761 760 759 757 756 755 754 753 752 750 749 748 746 745 744 743 742 741 740 739 738 737 735 734 733 731 730 729 728 726 725 725 723 722 721 720 720 719 718 717 716 715 714 713 712 711
793 792 791 790 790 789 788 787 785 785 784 784 783 782 782 781 780 779 778 777 777 777 776 776 775 774 773 771 771 770 770 769 768 767 766 766 765 764 762 761 760 759 757 756 755 754 753 752 751 750 748 747 746 745 743 742 741 740 739 738 737 736 735 733 732 730 729 728 727 725 725 724 722 721 720 720 719 718 717 716 715 714 713 712 711 710
792 791 790 790 789 788 787 786 785 785 784 783 782 782 781 781 781 780 779 778 777 776 775 775 775 774 773 771 770 769 769 768 767 765 765 764 763 762 761 760 758 757 756 755 754 753 752 751 750 749 747 746 745 744 742 741 740 739 738 737 736 735 733 732 731 730 728 727 726 725 724 723 722 720 720 719 718 717 716 715 714 713 712 710 710 708
791 791 790 789 788 787 787 786 785 784 784 783 783 782 782 781 781 780 779 778 777 776 775 775 774 773 773 772 770 769 768 766 765 765 764 763 762 760 759 758 757 756 755 754 753 752 751 750 749 748 747 745 744 742 741 740 739 738 737 736 735 734 732 731 730 729 727 726 725 724 723 722 721 720 719 718 717 716 715 714 712 711 710 709 708 707
791 790 790 789 788 787 787 786 785 785 784 784 784 783 782 781 780 780 779 777 777 776 775 774 773 772 772 771 770 769 767 766 765 764 763 762 761 760 759 757 756 755 755 754 753 752 751 750 748 747 745 744 743 741 740 739 738 737 736 735 734 732 731 730 729 728 726 725 724 723 722 721 720 719 718 717 716 715 714 712 711 710 709 708 706 705
791 790 790 789 788 788 787 787 786 785 785 785 784 783 782 780 780 779 778 777 776 775 775 773 772 772 771 771 770 768 767 766 765 764 762 761 760 759 759 757 756 755 754 753 752 751 750 749 747 746 744 743 741 740 740 739 737 736 735 734 733 731 730 729 728 727 725 725 723 722 721 720 719 718 717 716 715 713 712 711 710 709 707 706 705 704
791 791 790 790 789 788 788 787 787 786 785 784 783 782 781 780 779 779 778 777 776 775 774 773 771 770 770 770 770 768 767 766 765 764 762 760 759 759 758 757 756 755 754 753 752 750 749 748 746 745 743 742 741 740 739 738 737 735 734 733 732 730 729 728 727 726 725 724 722 721 720 719 718 717 716 715 713 712 711 710 708 707 706 705 703 702
792 791 791 790 790 789 788 787 787 786 785 784 783 782 781 781 780 779 778 777 776 775 774 774 772 770 768 768 768 768 767 766 765 763 762 760 759 759 758 757 756 754 753 752 751 750 748 747 745 744 742 741 740 739 738 737 736 735 733 732 731 730 728 727 726 725 724 723 722 720 719 718 717 716 715 713 712 711 710 708 707 706 705 703 702 701
792 792 791 790 790 789 788 787 786 785 784 783 782 782 781 781 780 780 779 778 777 776 775 774 773 772 770 768 768 768 767 766 765 763 762 760 759 758 758 757 755 754 753 751 750 749 748 746 745 743 742 740 740 739 737 736 735 734 733 731 730 729 728 726 725 724 723 722 721 720 718 717 716 715 713 712 711 709 708 707 705 704 703 702 700 700
793 792 791 791 790 789 788 787 786 785 784 783 782 782 781 781 780 780 779 778 777 777 776 775 774 773 772 770 769 767 767 766 765 763 762 760 759 758 757 756 755 753 752 750 749 748 747 745 744 743 741 740 739 738 737 736 734 733 732 730 730 728 727 726 725 723 722 721 720 719 717 716 715 713 712 710 709 708 707 705 704 703 701 700 699 698
793 793 792 791 790 789 788 787 786 785 784 783 782 782 781 781 780 780 779 778 777 777 776 775 774 773 772 770 769 767 767 766 765 763 762 760 759 758 757 756 754 753 751 750 749 747 746 745 743 742 740 739 738 737 736 735 734 733 731 730 729 727 726 725 724 722 721 720 719 717 716 715 714 712 711 709 708 707 705 704 703 701 700 699 697 696
793 793 792 791 790 789 788 787 786 785 784 783 782 782 781 781 780 780 779 778 777 776 775 775 774 773 771 770 769 768 767 766 765 764 762 760 759 757 756 755 754 752 750 749 748 747 745 744 742 741 740 739 738 737 736 735 733 732 731 730 728 727 725 724 723 722 720 719 718 716 715 714 712 711 710 708 707 705 704 703 701 700 699 697 696 695
793 793 792 791 790 790 789 788 787 785 785 783 783 782 781 781 780 779 779 778 777 776 775 775 774 772 771 770 769 768 767 766 765 764 762 760 758 757 756 755 754 752 750 748 747 745 744 743 741 740 739 738 737 736 735 734 733 731 730 729 727 726 725 724 722 721 720 718 717 715 714 713 711 710 708 707 705 704 703 701 700 698 697 695 694 693
793 793 792 791 790 790 789 788 787 786 785 784 783 782 782 781 780 780 779 778 777 776 775 774 773 772 771 770 769 768 767 766 765 764 763 761 758 756 755 755 753 751 750 748 746 745 743 742 741 740 739 738 737 736 735 733 732 731 730 728 727 725 724 723 721 720 719 717 716 714 713 711 710 709 707 706 704 703 701 700 698 697 695 694 693 691
793 793 792 791 790 790 789 788 787 786 785 784 783 782 782 781 781 780 779 778 777 776 775 773 772 771 770 770 769 768 767 766 765 765 763 761 759 757 755 754 753 751 749 747 746 744 742 741 740 739 738 737 736 735 734 733 731 730 729 728 726 725 723 722 720 719 718 716 715 713 712 710 709 707 706 705 703 702 700 699 697 695 694 693 691 690
793 793 792 791 790 790 789 788 787 787 786 784 783 782 781 781 780 780 779 777 776 775 774 772 771 770 770 769 768 767 767 766 765 765 764 762 759 757 755 754 753 751 749 747 745 744 742 740 739 738 737 736 735 734 733 732 731 730 728 727 725 724 723 721 720 718 717 715 714 712 711 710 708 706 705 704 702 700 699 698 696 695 693 691 690 689
793 793 792 791 790 790 789 788 787 787 786 785 784 782 781 781 780 779 777 776 776 775 774 772 771 771 770 769 768 767 767 766 766 765 764 762 760 757 755 754 753 751 748 746 745 743 742 740 738 737 736 735 735 733 732 731 730 729 727 726 725 723 722 720 719 717 716 715 713 711 710 709 707 705 704 703 701 700 698 696 695 693 692 690 689 687
793 792 792 791 790 789 788 787 787 786 786 785 784 783 782 780 779 778 777 777 776 775 775 774 773 772 771 770 769 768 767 767 766 765 764 763 760 757 755 754 753 751 748 746 745 743 742 740 738 737 736 735 734 732 731 730 729 728 727 725 724 722 721 719 718 716 715 714 712 711 709 708 706 705 703 702 700 699 697 695 694 692 691 689 687 686
792 792 791 790 789 788 788 787 787 786 785 785 784 783 782 780 780 779 779 778 778 777 776 775 774 773 772 771 770 769 768 767 766 765 764 762 760 758 756 754 753 751 749 746 744 742 741 740 738 736 735 734 733 732 730 730 728 727 726 724 723 721 720 719 717 716 714 713 711 710 708 707 705 704 702 701 699 698 696 695 693 691 690 688 687 685
792 791 790 790 789 788 787 787 786 786 785 785 784 783 782 781 780 780 780 779 778 778 777 776 775 775 773 772 770 769 768 767 766 765 764 762 760 758 756 755 753 751 749 746 743 740 739 738 737 736 735 734 732 731 730 729 727 726 725 723 722 720 719 718 716 715 714 712 710 709 708 706 705 703 701 700 698 697 695 694 692 691 689 688 686 685
791 790 790 789 789 788 787 787 786 786 785 785 784 783 783 782 781 781 780 780 779 778 778 777 776 775 774 772 770 769 767 767 766 765 764 762 760 758 757 755 754 753 751 748 744 740 737 736 736 736 735 733 732 730 729 728 727 725 724 722 721 720 718 717 715 714 713 711 710 708 707 705 704 702 701 699 698 696 695 693 692 690 689 687 685 684
791 790 790 790 789 788 788 787 786 786 785 785 784 784 783 782 782 781 781 780 780 779 778 777 776 775 775 773 771 770 768 767 766 765 764 763 761 759 758 756 755 753 752 751 749 745 740 736 734 734 734 733 731 730 729 728 727 725 724 722 720 719 717 716 715 713 712 710 709 708 706 705 703 702 700 698 697 695 694 693 691 690 688 687 685 684
792 791 791 790 790 789 788 787 786 786 785 785 784 784 783 783 782 782 781 781 780 779 779 778 777 776 775 774 773 771 770 768 767 766 765 764 762 760 759 757 755 754 753 753 752 750 746 741 736 734 733 732 731 730 729 728 727 725 724 722 720 718 717 716 714 713 711 709 708 707 705 704 703 701 700 698 696 695 693 692 691 690 688 686 685 683
792 792 791 790 790 789 788 787 787 786 785 785 785 784 784 783 783 782 782 781 780 780 779 778 777 776 775 774 773 772 770 769 767 766 765 764 762 760 759 757 756 754 753 752 752 751 749 745 741 737 734 732 731 730 729 728 727 725 724 722 720 718 717 715 714 712 710 709 707 706 705 703 702 700 699 697 696 694 693 692 690 689 688 686 685 683
793 792 791 790 790 789 788 788 787 786 786 785 785 785 784 784 783 782 782 781 781 780 779 778 777 776 775 774 773 771 770 769 768 766 765 764 763 761 759 758 756 755 753 752 750 749 748 746 743 740 736 733 731 730 729 728 727 725 724 722 721 719 717 715 714 712 710 709 707 705 704 703 701 700 698 697 695 694 693 691 690 689 688 686 685 684
793 792 791 791 790 789 788 788 787 787 786 786 785 785 785 784 783 783 782 782 781 780 780 779 778 777 775 774 773 771 770 769 767 766 765 764 763 761 760 758 757 755 754 752 750 749 747 745 744 741 738 734 731 730 729 728 727 725 724 723 721 720 718 716 714 713 711 709 707 706 704 703 701 700 698 697 695 694 693 691 690 688 687 686 685 684
794 793 792 791 790 790 789 789 788 788 787 786 786 785 785 784 784 783 783 782 781 780 780 779 778 777 776 775 773 772 770 769 767 766 765 764 763 761 760 758 757 755 754 752 751 749 748 745 743 741 740 737 733 730 728 727 726 725 724 722 721 720 718 716 715 713 711 710 708 706 705 703 702 700 698 697 695 694 692 690 689 688 687 685 685 684
795 794 793 792 791 791 790 790 789 788 788 787 786 786 785 785 784 784 783 782 781 780 780 779 778 777 775 774 773 772 770 769 767 766 765 764 763 761 760 758 757 756 755 753 751 750 748 745 743 741 740 738 735 733 730 727 726 725 724 722 721 719 718 716 715 714 712 710 709 707 705 704 702 700 698 696 695 693 691 690 688 687 686 685 684 683
795 795 794 793 792 792 791 790 790 789 789 788 787 786 786 785 784 784 783 782 781 780 779 778 777 776 775 774 773 771 770 769 767 766 765 764 762 761 760 758 756 755 755 753 752 750 748 746 744 742 740 738 736 735 732 730 727 725 724 722 721 720 718 716 715 714 713 711 709 707 706 704 702 700 698 696 695 692 690 689 687 686 685 683 682 681
797 796 795 794 794 793 792 791 791 790 789 789 788 787 786 785 785 784 783 782 781 780 779 778 776 775 774 773 772 771 770 768 767 766 764 763 762 760 759 757 755 755 754 753 752 750 749 747 745 744 741 739 736 735 733 731 729 727 724 722 720 719 718 716 715 714 713 711 710 708 706 704 702 700 699 697 695 693 691 689 687 686 684 683 681 680
798 797 796 795 795 794 793 792 791 790 790 789 788 787 786 785 785 784 783 782 781 780 778 777 776 775 773 772 771 770 769 768 766 765 764 762 761 760 758 757 755 754 753 752 751 750 749 747 745 744 742 740 738 736 734 732 730 728 726 723 721 719 717 716 715 714 713 711 710 708 706 704 703 701 699 697 695 694 692 690 688 686 685 684 682 680
798 798 796 795 795 794 793 792 791 791 790 789 788 787 786 785 784 783 782 781 780 778 777 775 774 773 772 771 770 769 768 767 766 765 763 762 760 759 758 756 755 753 752 750 749 748 748 746 745 743 742 740 739 737 735 733 731 730 728 726 723 721 719 717 716 715 713 711 710 709 707 705 703 701 699 697 695 694 692 691 689 687 685 684 683 681
799 798 797 796 795 794 793 792 791 791 790 789 788 788 786 785 784 783 782 780 779 778 776 775 773 772 770 769 769 768 767 766 765 764 762 761 760 758 757 755 754 753 751 750 748 747 746 745 744 743 741 740 738 737 735 733 731 730 729 727 724 721 719 717 716 715 713 711 710 708 707 705 703 701 699 697 695 693 692 690 689 688 686 685 683 682
800 799 798 796 795 795 793 792 791 791 790 789 789 788 787 786 785 784 783 781 780 778 777 775 774 772 770 768 767 766 766 765 764 763 762 760 759 757 756 754 753 752 750 749 747 745 744 744 743 741 740 739 738 737 735 733 731 730 729 727 725 723 720 717 715 714 713 712 710 709 707 705 703 701 699 697 695 693 691 690 689 687 686 684 683 681
800 799 798 797 795 795 793 793 792 791 790 790 790 789 788 787 786 785 783 782 780 779 777 775 774 772 770 769 767 765 764 764 763 762 761 760 758 757 755 753 752 751 750 748 747 745 743 742 741 740 740 739 738 736 735 733 731 730 729 727 726 725 723 720 717 715 713 711 710 708 707 705 703 701 699 697 695 693 691 689 688 686 685 684 682 681
800 799 798 797 796 795 794 793 793 792 791 791 790 790 789 787 786 785 784 782 781 779 778 776 774 772 771 769 767 765 763 762 761 760 759 758 757 756 754 753 751 750 748 747 746 745 743 742 740 739 738 738 737 736 735 733 731 730 729 727 726 725 723 721 719 716 714 711 710 708 706 705 703 701 698 696 694 692 690 689 687 685 684 683 681 680
800 800 798 797 796 795 795 794 793 793 792 791 791 790 789 788 787 786 785 783 781 780 778 777 775 774 772 770 769 766 764 762 760 759 758 757 755 755 753 752 750 749 748 746 745 744 743 742 740 739 738 737 736 735 735 733 732 730 728 727 725 724 722 720 719 717 715 712 710 708 706 704 702 700 698 696 694 692 690 688 687 685 684 682 681 680
801 800 799 798 797 796 796 795 794 793 793 792 792 791 790 789 787 786 785 783 782 780 779 777 775 775 773 772 770 768 766 764 761 759 757 756 755 753 752 751 750 749 747 746 745 743 742 741 740 739 737 736 735 735 734 733 732 730 729 727 725 724 722 720 719 717 715 713 710 708 706 704 702 700 698 695 693 691 689 688 686 685 684 682 681 679
802 801 800 799 798 797 796 795 795 794 793 793 792 792 791 790 788 786 785 784 782 780 779 777 776 775 774 772 771 770 768 766 764 761 759 756 755 753 752 750 749 748 747 745 744 743 741 740 739 738 737 736 735 735 734 733 732 730 729 727 725 724 722 720 718 716 715 713 710 709 707 705 703 700 698 695 693 691 689 687 686 685 683 682 681 679
803 802 801 800 799 798 797 796 795 795 794 794 793 792 791 790 789 788 786 784 783 781 780 778 777 775 774 773 771 770 769 767 765 763 760 758 756 754 752 750 749 748 746 745 743 742 741 740 739 738 737 736 736 735 734 733 731 730 729 727 726 724 722 720 718 716 714 712 710 708 707 705 704 701 699 696 694 691 689 687 685 684 683 682 680 679
803 802 801 800 800 799 798 797 796 796 795 795 794 793 792 790 789 788 786 785 783 782 780 779 778 776 775 773 772 770 769 767 765 763 762 760 758 755 754 751 750 748 746 744 743 741 740 739 738 738 737 737 737 736 734 733 731 730 728 727 726 724 722 720 718 716 714 712 710 708 706 705 703 701 700 697 695 692 689 687 685 684 682 681 680 678
804 803 802 801 800 800 799 798 797 796 796 795 795 793 792 790 789 788 786 785 783 782 780 780 778 777 776 774 772 771 770 768 766 765 763 761 759 757 755 754 751 750 747 745 744 742 741 739 738 738 737 738 737 736 735 733 731 729 728 727 725 724 722 720 717 715 713 712 710 708 706 705 703 701 700 698 695 692 689 687 685 683 682 680 679 677
Wind_Speed
12 13 14 15 15 15 15 16 16 16 16 17 18 19 20 21 21 20 20 19 19 20 20 20 20 20 20 20 20 20 20 21 21 21 21 21 22 23 24 24 25 25 26 26 27 27 28 28 28 28 27 27 26 26 26 26 26 27 27 27 27 27 27 27 26 25 25 24 24 24 23 22 21 21 21 21 20 20 20 20 21 22 23 23 24 24
13 14 14 14 14 14 14 14 14 15 15 17 18 20 21 21 21 20 19 18 17 17 18 18 19 19 19 19 19 19 19 19 19 19 19 20 21 22 23 24 24 25 25 26 27 27 28 28 27 27 26 25 25 25 25 26 26 27 28 29 29 29 28 28 27 26 25 25 25 25 24 23 22 22 22 22 22 21 21 21 21 22 23 23 24 25
13 13 14 14 14 14 14 14 15 16 17 18 20 21 21 20 20 19 17 17 16 16 17 17 18 18 18 18 18 18 18 18 18 18 19 20 21 22 23 24 24 25 25 25 26 26 26 26 26 26 26 25 25 25 26 26 26 27 29 30 30 29 28 27 26 25 25 25 25 25 24 23 23 23 23 23 23 22 22 21 22 22 23 24 25 26
13 13 14 14 14 14 15 16 17 18 20 21 21 20 19 18 17 17 16 16 17 17 17 17 17 17 17 17 17 17 17 18 18 19 20 21 22 23 23 23 24 24 24 24 24 24 24 25 25 25 26 26 26 26 26 26 27 27 28 29 29 28 27 25 24 24 24 24 25 24 24 23 23 22 22 22 22 22 21 21 22 23 24 25 26 27
13 13 14 14 14 14 16 18 19 21 22 22 20 19 17 16 16 16 17 17 18 19 18 18 17 16 16 16 16 17 18 19 20 21 22 23 23 23 23 23 22 22 22 23 23 23 24 24 25 25 25 25 25 26 26 26 26 26 26 26 26 26 25 25 24 24 24 25 25 25 24 24 23 22 21 21 21 21 21 21 22 23 25 25 26 26
13 13 14 14 14 15 17 19 21 22 23 22 20 18 16 16 17 18 19 19 19 19 19 17 16 15 15 16 17 18 19 20 22 23 23 23 23 22 22 21 21 21 22 22 23 23 24 24 24 24 24 24 25 24 24 24 24 24 24 24 24 25 25 25 25 25 26 26 26 26 25 24 22 21 20 20 20 21 21 22 23 24 25 25 25 25
14 15 16 15 15 16 18 20 22 23 22 21 20 19 17 17 18 19 20 20 20 19 18 17 15 15 16 17 18 19 20 21 22 22 22 21 21 20 20 20 21 22 23 23 24 24 24 24 24 24 24 24 24 24 24 23 23 23 23 23 24 25 26 26 26 26 26 26 26 26 25 24 23 22 21 21 21 22 22 23 24 25 25 24 25 25
15 16 17 17 17 17 19 21 22 22 21 20 20 20 19 19 19 19 20 21 20 19 18 16 15 15 15 17 18 20 21 20 20 20 19 19 18 19 19 21 22 23 24 25 24 24 24 23 23 24 24 24 24 24 23 23 23 23 23 24 24 25 25 26 26 26 25 25 25 24 24 23 23 23 22 22 23 23 23 24 24 25 25 25 25 25
16 17 17 17 17 18 19 20 21 21 20 19 19 19 20 20 20 19 18 18 18 17 16 16 16 16 17 17 19 20 20 19 17 17 17 17 18 19 21 23 24 25 25 25 24 23 22 22 23 23 23 23 23 23 23 23 24 24 24 24 25 25 25 26 26 26 25 25 24 23 23 23 23 23 23 23 23 23 24 24 25 25 25 25 25 25
17 17 17 17 17 17 18 19 21 21 20 19 18 18 18 19 19 18 17 16 15 14 14 15 16 17 19 19 19 19 18 17 15 15 16 17 19 22 24 25 26 26 24 23 22 21 21 21 22 22 23 23 23 23 23 24 24 24 24 24 25 25 26 26 26 26 25 24 24 23 23 23 23 23 23 23 23 24 24 25 24 24 25 25 26 26
16 16 16 16 17 17 17 18 19 20 20 19 18 16 15 15 15 16 16 15 15 14 14 14 14 16 19 20 20 18 16 15 15 15 17 19 23 26 27 27 26 23 22 20 20 19 20 21 22 22 22 23 23 23 24 24 24 24 24 24 25 25 25 25 25 25 24 24 24 23 23 23 23 23 23 23 23 23 24 24 24 24 25 25 26 26
15 15 15 15 16 16 16 17 17 17 17 16 14 13 12 12 13 14 14 14 14 14 15 14 14 15 17 19 19 17 15 15 16 18 21 24 27 28 28 26 23 21 19 19 19 19 20 21 21 22 22 23 24 24 24 24 24 24 24 24 24 24 24 24 24 23 23 23 23 23 23 23 23 23 23 23 24 24 25 25 25 25 26 26 27 27
17 16 15 14 14 14 14 15 15 14 13 12 11 11 12 13 14 14 13 13 13 14 15 16 16 17 17 17 16 15 15 17 19 22 24 27 28 27 25 22 20 20 19 19 20 20 21 21 21 22 23 24 25 25 25 24 24 24 24 24 24 24 23 23 23 23 23 23 23 23 23 23 23 24 24 24 25 25 25 25 26 26 26 26 26 26
16 15 13 12 11 12 13 13 13 12 11 11 12 12 13 14 15 14 14 14 14 14 15 17 18 18 17 16 15 15 17 19 22 25 26 26 25 23 21 20 20 19 19 19 20 21 22 23 24 25 26 26 26 25 24 24 24 24 24 23 23 23 23 22 22 22 22 22 23 23 23 23 24 24 24 24 25 25 25 25 25 25 26 25 25 25
14 12 10 9 9 10 12 13 12 11 11 12 13 14 15 15 14 14 13 13 14 15 16 18 19 18 17 15 15 17 19 22 24 24 24 24 22 19 18 19 19 19 18 19 20 22 24 25 26 28 28 27 26 24 24 24 24 23 23 23 23 22 22 22 22 22 22 23 23 23 23 24 24 24 24 24 24 25 25 25 25 25 25 24 24 24
11 9 8 9 9 10 11 11 11 11 12 13 13 14 14 14 14 13 13 13 14 15 16 18 18 18 17 15 15 17 21 23 23 22 21 21 19 17 17 18 18 18 19 20 22 24 26 27 28 28 28 26 24 23 23 23 23 23 22 22 22 22 22 22 22 22 23 23 23 23 23 23 24 24 24 24 24 24 24 24 24 24 24 24 24 24
9 9 9 9 9 10 11 11 11 11 13 13 13 13 13 13 14 14 13 13 13 14 14 14 13 13 14 17 17 18 21 22 23 22 20 18 17 16 16 17 18 18 20 22 24 25 26 27 28 28 27 25 24 23 23 23 22 22 22 22 21 22 22 22 22 22 23 23 23 23 23 23 23 23 23 23 23 23 23 23 23 23 23 24 24 24
10 10 9 9 9 10 11 11 12 13 13 13 13 13 12 12 12 12 12 12 12 13 13 14 13 12 11 14 17 19 21 21 21 20 17 15 15 15 16 17 18 19 21 23 24 25 25 26 27 27 26 24 23 22 22 22 22 22 21 21 21 22 22 22 22 22 22 22 22 22 23 23 23 23 23 23 23 23 23 23 23 23 23 24 24 24
9 10 10 10 10 10 11 12 13 14 14 13 12 12 11 12 11 11 11 11 11 12 13 14 14 14 13 14 17 20 20 20 20 18 15 15 15 16 16 18 19 21 22 23 24 24 25 26 28 27 25 23 22 22 21 21 22 21 21 21 21 22 22 22 22 22 22 22 22 22 22 22 22 23 23 23 23 23 23 23 23 24 24 24 24 25
9 10 11 11 12 12 11 12 13 14 13 12 11 11 11 11 11 11 10 10 11 11 12 13 13 13 14 15 18 19 18 19 18 17 15 15 16 16 17 19 21 23 23 23 23 23 24 26 28 28 26 23 22 21 21 21 21 21 21 21 21 21 21 21 21 21 21 21 21 22 22 22 22 23 23 23 23 23 23 23 24 24 24 24 24 25
11 11 11 12 12 12 12 13 13 12 11 11 12 12 12 12 12 11 10 11 12 13 14 13 14 14 15 16 17 17 16 17 17 16 15 15 16 16 18 20 22 23 22 22 22 23 24 26 27 27 25 22 21 21 21 21 21 21 21 21 21 21 21 21 21 21 21 21 21 21 22 22 22 22 22 22 23 23 23 23 23 23 24 24 24 24
12 12 12 11 11 12 12 14 13 12 12 13 14 14 13 13 12 11 11 11 12 13 14 14 14 14 14 14 14 15 15 16 17 16 15 14 16 18 19 21 22 22 21 22 23 24 25 26 26 26 23 21 20 20 21 21 21 21 21 21 21 21 21 21 21 21 21 21 21 21 21 21 22 22 22 22 22 22 22 23 23 23 23 23 23 23
11 11 11 11 11 11 11 13 13 13 14 14 15 15 15 15 13 11 11 12 13 13 14 14 14 13 12 13 13 14 15 15 17 17 15 13 15 18 21 22 22 21 21 22 23 25 26 26 25 24 23 21 20 20 21 21 21 21 21 21 21 21 21 21 21 21 21 21 21 21 21 21 21 21 21 22 22 22 22 22 22 22 22 22 23 23
10 10 11 11 11 11 11 12 13 14 15 15 15 15 16 15 14 13 12 13 14 15 14 14 14 14 13 13 14 15 16 16 17 17 16 14 16 19 21 21 21 21 22 22 23 24 25 25 24 23 22 21 20 20 20 21 21 21 21 21 21 21 21 21 21 21 21 22 22 22 22 22 21 21 21 21 21 22 22 22 22 22 22 22 22 22
10 11 11 11 11 12 12 12 13 14 15 15 15 16 16 16 15 14 14 15 16 16 15 15 14 14 14 14 15 16 17 16 17 18 17 16 17 19 20 20 20 21 23 23 24 23 24 23 23 22 21 21 21 21 20 21 21 21 21 21 22 22 22 22 22 22 22 22 22 22 22 22 21 21 21 21 21 21 21 22 22 22 23 22 22 21
9 10 10 11 11 12 13 13 13 13 14 14 14 16 17 17 16 16 16 16 17 17 16 15 14 14 15 15 15 16 17 16 17 19 20 18 18 19 19 20 20 21 23 24 23 22 22 22 22 21 20 21 22 22 21 21 21 21 22 22 22 22 22 22 22 22 23 23 23 23 22 22 21 21 21 21 21 21 21 22 22 23 23 22 21 21
8 9 10 11 12 13 13 13 13 13 14 13 13 14 16 17 17 16 15 16 16 16 14 13 12 12 14 14 14 15 16 16 18 21 23 20 17 17 19 20 21 21 22 23 23 22 21 20 20 20 20 21 22 23 22 22 21 21 22 22 23 23 23 23 23 23 23 23 23 23 23 22 22 22 21 21 21 22 22 22 22 23 22 22 21 21
7 8 10 11 13 13 13 12 12 13 14 14 13 14 15 16 16 15 14 14 15 15 13 11 10 10 11 12 13 15 15 15 17 21 23 20 16 16 18 20 21 21 21 22 23 22 19 18 17 18 19 21 22 23 23 23 22 23 23 23 23 23 23 23 23 23 23 23 23 23 23 23 23 23 23 22 22 22 22 22 23 23 22 22 21 21
7 8 9 11 12 13 13 12 12 13 14 14 13 13 14 15 15 14 13 14 14 13 12 12 11 11 11 13 14 15 14 15 18 21 23 19 16 16 19 20 20 20 21 22 23 22 19 17 16 17 19 21 22 23 24 24 24 25 25 25 25 24 23 23 23 23 23 23 23 23 23 23 24 24 24 23 23 23 23 23 23 23 23 22 21 20
10 10 11 12 13 13 13 13 14 14 14 13 13 13 13 13 13 13 13 13 13 12 12 12 12 12 13 13 13 12 12 15 19 21 22 18 16 17 19 19 19 19 19 19 17 16 16 18 18 18 20 21 23 23 24 24 25 26 27 27 27 25 24 23 23 23 23 23 23 23 23 23 23 24 24 24 23 23 23 23 23 24 23 23 22 21
14 14 14 14 15 15 15 15 15 15 13 12 12 13 13 13 12 12 12 13 14 13 12 12 12 12 13 11 8 6 7 15 19 20 20 17 15 16 19 19 19 19 18 15 10 7 10 16 20 21 22 22 22 23 23 23 24 25 27 28 28 26 25 24 23 23 23 23 22 23 23 23 23 24 24 24 24 23 23 23 24 24 23 23 22 22
15 15 16 16 16 17 17 17 16 15 13 12 12 12 12 13 12 12 12 13 14 14 14 13 13 13 13 11 8 6 8 15 19 20 20 17 16 16 18 18 18 18 17 15 12 8 6 10 17 23 24 23 22 22 23 23 23 24 26 27 27 26 25 24 24 24 24 23 23 23 23 23 23 23 24 24 24 24 24 24 24 23 23 23 22 22
16 16 16 17 18 19 19 19 18 16 14 12 12 12 12 13 13 13 12 13 13 14 15 14 13 13 13 13 12 11 12 16 18 19 18 16 16 16 18 17 17 18 17 16 15 13 10 11 17 22 23 22 22 21 22 22 23 24 25 26 26 26 26 25 25 24 24 24 24 24 24 24 24 24 24 24 24 24 24 24 24 23 22 22 22 22
17 17 18 18 20 21 21 20 19 18 16 14 13 13 13 13 13 13 13 13 13 13 14 15 15 15 14 13 12 12 14 16 18 18 17 16 15 15 17 17 16 17 17 17 16 16 15 16 17 19 20 21 21 21 21 21 23 24 25 25 25 25 26 26 25 25 24 24 24 24 24 25 25 24 24 24 24 25 25 24 23 22 21 21 22 22
19 19 20 21 22 22 21 21 20 19 17 16 15 15 14 14 14 14 14 14 13 13 13 14 15 15 15 14 12 13 15 17 18 18 18 17 17 16 16 16 16 16 16 16 16 16 15 16 17 18 18 19 20 20 20 21 22 23 24 24 23 24 24 25 25 25 24 24 23 23 24 24 24 24 24 24 25 25 24 24 23 22 21 21 21 21
19 20 21 22 22 22 21 20 19 18 17 17 16 15 15 15 15 15 15 15 14 14 13 13 14 14 14 14 13 14 15 17 18 18 18 19 19 18 16 15 16 16 15 16 16 16 15 16 17 18 17 17 17 18 20 22 23 23 23 23 23 23 24 24 24 24 23 23 22 23 23 24 24 24 24 25 25 25 25 24 23 22 22 21 21 20
17 19 20 21 22 21 19 18 18 17 17 16 16 15 14 15 15 15 16 16 15 15 15 15 14 14 13 12 12 13 14 15 16 17 18 18 19 18 17 16 16 16 15 15 16 16 16 16 16 17 16 14 14 16 20 23 24 24 23 23 23 23 23 23 23 23 22 21 21 22 23 23 23 24 25 25 26 26 26 26 25 24 24 23 22 21
16 17 18 20 20 20 19 18 17 16 16 15 15 15 14 14 15 15 16 16 17 17 17 17 17 15 13 12 11 12 13 14 15 16 17 18 18 18 18 18 18 18 17 15 15 16 15 14 13 12 13 14 16 17 19 21 22 23 24 23 23 22 22 22 22 22 21 21 21 22 22 23 23 24 24 25 26 27 27 27 27 26 26 25 24 23
15 16 17 17 18 18 18 17 17 16 15 14 14 14 14 14 14 15 16 17 18 18 19 19 18 17 14 13 12 12 12 13 15 16 17 18 17 17 18 19 19 19 18 17 16 15 14 13 12 11 12 14 16 18 20 20 21 22 24 24 23 22 22 22 22 21 21 22 22 22 23 23 24 24 24 24 25 25 26 26 27 26 26 26 25 25
14 15 16 16 17 17 17 17 16 15 15 14 13 13 14 15 16 17 18 19 20 21 21 21 20 19 17 15 14 13 13 14 15 17 18 18 17 17 17 18 19 19 19 18 16 15 14 13 13 14 14 14 15 17 19 19 20 21 22 22 21 21 23 23 22 22 22 22 22 22 23 23 24 24 24 24 25 25 25 25 25 25 25 24 24 24
14 15 16 17 17 17 17 17 17 16 15 15 15 16 17 17 19 20 22 23 23 24 24 24 24 23 21 19 17 16 15 15 16 17 18 18 18 17 17 18 19 20 20 19 18 17 15 14 15 15 15 16 16 17 18 19 20 20 20 19 20 21 22 21 21 21 22 22 22 22 22 23 23 24 25 25 25 25 25 25 25 24 24 23 23 23
14 15 16 17 17 17 18 18 18 17 16 16 17 18 19 19 21 22 24 25 25 25 26 26 26 25 25 23 22 20 18 17 17 18 18 19 19 18 18 18 19 20 20 20 20 18 17 16 16 16 16 17 16 16 17 19 20 19 18 18 20 21 21 21 21 22 22 22 22 22 22 23 23 24 25 26 26 26 26 26 25 24 23 23 24 24
15 15 16 16 17 17 18 19 18 18 17 17 18 18 19 20 21 22 23 24 24 24 25 25 25 24 23 24 24 23 21 19 18 18 19 19 19 20 20 19 19 19 20 20 20 20 19 18 17 17 17 17 16 16 17 18 19 19 18 18 19 19 18 20 22 23 23 23 23 23 23 23 24 25 25 26 27 27 27 27 26 25 24 25 25 25
15 16 16 16 17 17 18 19 19 18 18 17 17 19 21 21 22 22 22 23 23 23 24 25 25 23 22 22 23 24 23 22 21 20 20 20 20 20 21 21 20 20 19 20 20 20 20 19 18 17 17 16 16 16 17 17 18 18 18 18 18 17 16 19 22 23 23 24 24 24 24 25 25 25 26 26 27 27 27 28 28 27 27 27 26 26
16 17 17 17 17 18 18 18 18 18 17 16 17 19 22 23 22 22 22 22 22 23 23 24 23 21 20 21 23 24 24 24 23 23 22 22 22 22 22 22 21 21 20 19 19 18 19 19 19 18 16 16 15 15 16 16 16 17 17 18 17 17 18 19 21 22 22 23 24 25 26 26 26 25 24 25 26 27 28 28 28 28 28 28 27 26
17 17 17 18 18 17 17 17 18 18 18 17 18 20 22 23 23 23 22 22 22 23 23 23 22 20 19 20 22 23 24 25 25 25 25 24 24 24 23 22 22 21 20 19 18 17 16 17 17 17 16 15 15 14 14 14 15 16 17 18 18 18 18 19 20 21 22 23 24 25 27 27 26 24 22 23 25 26 27 28 28 28 28 27 27 26
16 16 17 17 17 17 17 17 18 18 17 17 17 19 22 24 24 24 24 23 23 23 23 23 22 21 19 20 20 21 22 23 24 25 25 25 25 25 24 23 23 21 20 19 18 17 15 14 13 13 14 13 13 12 13 15 15 16 17 18 18 18 18 19 20 21 23 23 24 26 28 28 26 23 23 24 25 25 26 27 28 28 27 27 27 27
17 17 16 16 16 17 17 17 18 17 17 16 16 18 21 24 25 25 25 25 24 24 23 23 22 21 20 20 20 20 21 21 22 23 23 24 25 25 24 24 23 22 21 19 18 17 15 12 10 9 9 9 9 10 13 15 16 17 17 17 18 18 18 19 21 22 23 24 25 27 27 26 24 24 24 23 22 23 24 26 27 28 27 27 27 27
17 17 17 17 17 17 17 17 17 17 16 16 15 16 20 23 25 25 25 25 25 24 23 22 21 20 20 20 21 21 21 21 21 21 22 23 23 24 24 24 23 22 21 20 19 18 16 13 10 8 7 7 9 11 14 16 17 17 17 17 17 17 18 19 21 22 22 24 26 27 26 25 24 24 23 21 20 21 23 25 26 27 27 27 27 28
17 17 17 17 17 17 17 17 17 16 16 15 15 16 19 23 26 27 27 26 26 24 23 22 21 20 19 20 21 21 21 21 21 20 21 22 22 23 23 24 24 23 21 21 20 20 19 17 14 10 8 7 9 12 15 16 17 17 17 17 17 18 18 19 21 22 23 24 26 26 26 25 24 23 22 20 20 21 22 23 24 25 27 28 29 29
17 17 17 17 17 17 17 17 16 16 15 15 15 16 19 23 26 28 28 27 27 25 24 23 21 19 19 19 20 20 20 20 20 20 20 21 21 21 21 22 22 22 21 20 19 19 18 16 14 12 11 9 10 13 14 16 17 17 17 17 18 18 19 20 21 23 24 24 25 25 24 24 23 22 20 19 19 20 21 22 23 25 27 29 30 30
Wind_Direction
302 304 307 309 309 309 306 307 307 307 305 304 304 305 307 309 312 313 315 315 315 314 314 314 315 314 314 314 314 314 315 316 317 317 316 315 315 315 315 314 314 314 314 314 314 314 313 312 312 311 311 311 311 311 310 309 309 308 308 307 308 309 310 309 308 305 303 302 301 301 302 303 304 304 303 303 303 304 303 303 302 303 303 303 304 303
304 307 310 312 313 312 310 311 311 311 310 309 309 310 312 313 314 315 316 316 317 319 319 319 319 318 318 318 317 317 317 319 320 320 320 320 320 320 318 317 316 316 316 316 316 315 314 313 313 314 314 314 313 312 312 311 311 311 311 310 310 311 312 312 311 310 308 307 307 307 307 306 305 305 306 306 306 305 305 305 305 305 305 304 303 301
309 311 312 313 312 311 309 309 309 308 308 308 309 311 313 314 315 317 319 322 323 324 324 323 322 321 319 319 318 317 318 319 321 322 322 323 323 322 320 318 318 317 317 316 315 315 315 315 316 317 317 316 315 313 312 311 311 313 314 312 312 314 316 317 316 313 310 310 310 311 310 309 307 307 307 306 305 305 305 305 306 305 304 303 301 300
310 311 313 314 313 311 309 309 308 308 309 310 312 315 316 317 318 320 322 324 325 324 324 323 321 319 318 317 316 316 317 319 320 321 322 322 323 322 321 320 319 319 318 317 317 317 318 318 318 317 317 316 315 314 312 312 312 313 315 314 315 317 319 320 319 316 313 312 312 311 310 308 306 306 305 304 304 304 305 305 305 304 302 301 300 300
308 310 312 314 313 311 309 309 310 311 314 316 318 320 321 321 321 321 322 323 323 323 322 321 320 317 315 314 314 315 317 318 319 321 322 322 323 323 322 322 321 321 321 320 320 319 318 317 316 316 315 315 314 313 313 313 313 314 315 316 317 319 321 321 319 316 315 314 313 311 310 308 307 306 305 304 304 305 305 306 304 303 300 300 301 302
306 309 311 312 311 310 309 310 312 314 317 320 322 323 323 322 321 321 321 321 321 320 320 319 316 313 311 311 313 316 318 320 321 323 324 324 324 323 322 322 323 323 323 323 322 320 319 318 317 317 317 316 316 315 315 315 315 316 316 318 319 319 320 319 318 316 314 313 312 311 310 310 309 309 308 308 308 308 307 306 304 301 300 303 305 305
305 308 310 311 310 309 310 311 314 317 318 319 320 321 319 319 319 320 320 320 320 319 318 316 313 311 310 312 316 319 322 324 325 326 326 325 323 322 322 323 324 324 324 323 322 321 320 319 320 320 320 319 318 318 317 317 318 318 319 320 320 320 320 318 316 315 313 313 312 311 312 312 313 313 313 312 311 310 308 306 304 303 305 307 307 306
306 308 310 311 312 311 311 312 316 319 320 318 316 315 314 315 315 317 318 319 318 318 317 316 315 315 317 320 323 326 328 329 329 327 325 322 321 321 322 324 324 324 323 321 320 319 319 320 321 322 323 322 322 321 320 320 320 320 321 321 321 320 319 317 315 314 313 314 314 314 315 315 315 315 315 313 312 311 309 307 306 307 309 309 308 307
306 309 311 312 312 311 311 312 316 319 321 317 313 311 310 311 312 314 316 317 318 319 319 320 322 325 328 330 332 332 332 331 329 325 322 321 320 322 323 324 323 322 321 320 318 318 320 321 322 324 324 324 325 325 325 325 324 324 323 321 320 319 317 316 316 316 316 317 318 318 318 317 317 316 315 314 313 312 311 310 311 312 311 310 310 309
307 308 310 311 312 311 309 309 313 317 318 314 309 307 308 310 314 318 321 322 324 325 326 327 329 331 331 333 334 334 333 329 324 321 320 320 321 322 322 322 321 320 319 319 319 319 321 323 324 325 326 326 327 328 328 328 327 325 323 321 319 318 317 317 318 319 320 321 321 320 320 319 318 317 317 317 316 316 315 316 317 316 314 313 312 310
306 307 308 310 312 313 311 310 312 316 316 313 311 311 313 319 325 329 330 330 332 333 333 333 333 332 331 331 332 332 331 327 324 323 321 321 320 321 321 322 322 322 322 323 323 323 325 325 326 327 327 328 328 328 328 328 326 324 323 321 320 319 319 319 320 321 323 323 322 321 321 321 321 321 320 320 320 320 318 318 318 317 315 313 311 309
302 304 306 309 312 314 315 315 317 319 319 320 322 328 336 343 346 343 337 332 332 332 333 332 331 331 330 330 330 332 332 332 331 330 327 324 322 322 324 326 328 329 330 329 329 330 331 330 329 328 329 329 328 328 328 327 326 325 323 322 321 320 320 320 321 323 323 323 323 324 324 323 322 322 321 320 319 318 317 316 315 315 313 311 309 308
300 302 304 307 311 317 322 326 328 330 333 340 346 348 348 349 349 346 338 330 328 329 329 328 328 329 330 331 332 334 337 337 335 332 329 327 326 327 330 332 332 333 334 333 334 335 335 334 332 330 329 329 328 328 328 327 326 325 324 323 322 321 321 322 323 324 324 324 324 323 323 322 321 320 319 318 317 316 315 314 313 311 310 308 307 306
303 305 306 309 318 331 342 346 345 346 351 358 357 350 343 341 342 340 334 328 326 327 327 326 326 327 330 332 333 336 341 340 336 332 330 328 329 333 336 335 334 335 336 336 336 336 336 335 333 331 331 330 330 330 328 327 326 325 325 324 323 323 323 324 325 325 324 324 323 322 321 320 319 318 317 317 316 315 314 312 311 310 308 307 306 305
310 314 318 327 342 355 2 1 358 355 355 353 347 342 338 337 337 336 332 327 326 328 329 327 327 327 328 330 332 334 339 339 337 334 331 331 334 340 341 338 336 336 336 336 335 334 334 334 334 333 333 332 331 329 328 326 326 326 325 325 325 325 325 326 326 325 324 323 322 320 319 318 317 317 316 315 315 314 313 312 311 310 308 307 307 306
331 342 348 356 2 5 4 360 354 348 343 340 338 337 335 333 334 335 333 329 329 331 332 331 329 328 327 328 330 332 336 338 337 334 331 331 335 341 342 338 337 336 335 334 333 333 334 335 335 334 333 332 329 328 327 327 327 327 327 327 326 326 327 327 326 326 325 323 322 320 318 317 316 316 315 314 314 313 313 312 311 310 310 309 309 309
3 9 9 6 1 356 351 347 344 340 336 335 334 335 334 335 336 338 338 336 336 336 337 337 334 329 326 326 328 332 336 337 336 334 331 328 331 335 338 337 337 335 333 332 332 333 334 335 334 333 332 330 328 328 329 328 329 329 329 329 328 328 328 327 326 325 324 322 320 319 317 317 316 316 315 315 314 314 313 313 312 311 311 310 310 309
19 16 9 2 353 345 341 339 338 337 336 335 335 337 341 344 346 347 346 345 344 342 341 338 333 328 324 323 325 330 338 339 337 334 331 328 328 332 335 335 335 334 332 331 331 333 334 333 333 332 331 329 329 329 330 331 331 331 331 331 330 329 328 327 326 324 323 322 320 319 318 318 317 316 315 315 315 314 314 313 313 312 311 310 309 308
17 12 5 355 346 340 339 340 339 339 340 341 345 350 355 358 359 358 355 354 352 347 342 336 331 327 323 320 322 330 343 343 340 336 332 328 328 330 334 334 334 333 330 329 330 332 332 331 332 333 332 331 330 331 332 333 333 333 332 331 331 330 328 327 326 325 324 322 321 320 319 319 318 318 317 316 315 315 314 314 313 312 311 309 308 307
14 10 3 354 346 342 341 343 346 348 350 356 6 14 13 9 5 2 359 358 355 350 344 337 330 326 323 319 324 335 348 348 344 340 334 329 328 330 333 334 333 331 328 327 328 330 329 330 331 333 335 334 333 333 334 335 335 335 334 333 332 331 330 328 328 327 326 324 323 322 321 320 320 319 319 317 316 316 315 313 312 311 310 309 308 307
14 9 8 6 360 353 347 351 356 1 4 9 18 24 22 14 9 4 0 356 352 347 342 336 328 324 324 323 329 340 352 351 348 343 336 330 328 330 332 333 331 328 325 325 326 328 328 328 330 332 334 332 332 333 335 335 336 335 335 334 333 333 332 331 330 329 328 327 325 324 322 321 320 319 318 317 316 315 314 313 312 311 310 310 309 309
17 14 14 17 15 9 3 5 7 8 8 11 19 24 20 14 9 2 359 358 353 346 340 332 328 328 330 331 337 347 355 353 350 345 337 331 328 329 331 331 329 326 323 324 326 326 327 327 329 331 331 330 330 333 335 336 336 337 336 336 335 335 334 333 332 331 329 328 327 325 323 322 321 320 319 318 317 316 315 314 314 313 313 312 312 311
21 19 18 19 20 18 14 12 10 8 7 11 16 19 17 13 8 2 358 357 353 347 340 336 337 341 344 344 348 353 358 357 353 349 342 334 329 328 329 330 329 326 323 324 324 325 326 327 327 329 330 330 330 332 335 336 337 337 338 337 337 336 335 334 333 332 331 330 328 327 326 324 323 322 321 320 319 319 318 317 317 316 315 315 314 314
26 24 23 22 21 18 17 14 10 6 5 8 11 12 9 6 3 0 358 358 356 352 349 348 350 353 353 352 352 354 359 360 357 352 347 337 329 327 328 329 328 326 324 324 324 324 325 325 326 327 329 331 331 332 334 335 337 337 338 337 337 337 336 335 334 333 332 331 330 329 328 327 326 325 324 323 323 322 321 320 319 319 318 318 318 317
27 26 24 22 19 17 14 11 8 5 3 4 6 7 5 2 0 0 2 3 2 358 355 355 356 356 355 354 352 353 356 359 358 354 350 338 329 326 327 329 329 327 325 325 325 325 325 324 324 326 328 331 332 333 334 335 336 336 336 336 337 336 336 335 334 333 333 332 332 331 331 330 329 328 327 326 326 325 324 323 323 322 322 322 321 320
26 24 21 18 16 15 12 9 7 4 0 2 3 4 3 3 5 8 10 9 5 2 0 0 359 357 354 353 350 349 350 353 354 353 349 339 329 325 327 331 331 328 325 326 327 327 325 323 323 325 328 331 333 334 334 335 335 336 336 336 336 336 336 335 335 334 334 333 333 333 332 332 331 331 330 329 328 327 327 327 326 326 326 326 325 324
24 23 20 17 14 12 9 9 8 6 4 3 3 4 4 6 10 13 13 9 6 4 3 1 358 353 351 350 346 343 343 347 349 348 346 338 329 324 327 331 331 329 326 327 328 327 325 322 322 325 329 331 333 334 334 335 335 335 336 336 336 336 336 336 336 335 334 334 334 334 334 334 334 333 333 332 331 331 331 330 330 330 331 331 330 329
19 20 20 18 14 11 9 10 12 12 10 8 7 7 8 11 14 14 11 7 5 4 3 0 355 350 346 342 338 336 339 343 346 346 345 338 330 325 328 331 332 331 329 328 328 326 324 323 324 327 331 332 332 333 334 335 336 337 337 337 338 338 337 337 337 336 335 335 335 335 335 335 335 334 335 334 334 334 334 334 334 335 336 336 335 333
13 14 15 14 13 13 14 18 21 21 16 14 12 11 13 16 17 14 10 7 5 2 359 357 353 347 341 335 333 334 338 343 344 345 345 339 331 328 330 332 334 335 334 332 330 329 327 327 328 330 332 331 331 332 334 335 337 338 338 339 340 340 339 338 337 337 335 335 336 336 336 335 335 335 335 336 336 336 336 337 338 338 339 338 337 335
17 17 18 18 18 19 21 24 25 25 24 22 19 16 17 20 20 17 12 9 5 359 354 351 348 344 340 336 335 335 338 340 343 344 345 339 333 331 333 334 336 338 339 337 335 332 329 328 329 331 331 331 331 331 333 335 336 337 338 340 341 341 340 338 337 336 336 336 337 337 337 337 336 336 337 337 337 338 338 339 340 341 341 340 338 336
26 27 27 26 25 25 27 27 27 27 28 27 24 21 21 21 21 19 15 10 5 358 350 347 345 343 342 339 337 333 331 334 338 343 346 340 333 332 334 334 335 337 341 342 340 330 325 326 327 328 330 330 330 330 332 334 335 336 338 339 340 341 341 339 338 338 338 337 338 338 338 338 338 337 338 339 339 340 341 342 342 342 342 341 338 337
32 32 30 28 26 27 28 29 28 29 31 31 29 27 25 23 21 18 14 10 5 360 354 350 346 343 340 336 331 322 321 328 335 342 346 341 334 332 334 333 333 334 338 340 336 326 317 319 321 323 326 327 327 328 331 333 335 336 338 338 339 339 340 340 340 339 338 338 338 339 339 340 340 339 339 340 341 342 342 343 343 343 343 341 338 337
33 32 29 26 24 25 28 29 29 30 31 30 30 30 29 26 22 18 14 9 5 1 358 354 348 341 337 331 326 321 321 326 335 343 346 343 337 333 334 333 333 333 334 335 332 326 316 312 315 319 321 322 324 326 329 332 334 336 338 337 337 338 340 341 341 339 338 338 338 339 340 341 341 341 340 341 342 342 343 342 343 344 344 342 339 337
30 29 26 23 21 22 26 28 29 29 28 26 25 26 27 26 23 18 14 10 6 2 359 356 350 343 336 330 325 322 323 330 340 347 347 345 339 334 334 333 333 333 333 333 332 328 321 317 317 318 319 320 321 324 327 331 334 336 337 337 336 336 338 340 340 339 338 338 338 339 339 340 341 341 341 342 342 342 342 342 343 344 344 343 341 339
24 24 22 19 17 17 20 21 22 23 24 22 20 21 24 25 23 20 15 11 7 4 359 355 351 347 342 334 327 323 325 335 345 350 349 346 341 336 334 333 333 333 332 331 331 329 325 321 320 319 319 319 320 323 326 331 333 335 337 337 337 336 337 339 339 338 338 338 338 338 339 340 340 340 340 341 341 341 341 342 344 346 346 346 345 342
18 18 17 16 14 12 12 13 14 15 17 17 17 18 22 24 23 20 15 10 6 3 359 354 351 348 345 341 334 329 330 339 345 348 349 347 343 339 334 331 331 332 331 330 330 328 324 321 320 320 320 319 320 322 326 330 333 335 337 338 338 337 338 339 340 339 338 337 337 337 338 339 338 338 339 339 340 341 343 345 346 347 347 347 347 346
15 14 13 12 11 9 8 10 10 9 11 12 13 15 18 21 21 17 13 8 4 0 357 353 351 350 349 346 342 339 338 341 344 345 346 345 343 340 336 331 331 332 331 329 327 326 323 320 320 321 321 320 319 321 324 328 332 335 336 336 336 336 337 340 340 340 338 337 336 336 337 338 338 338 338 339 341 343 346 348 349 349 348 347 347 346
14 11 9 9 8 7 5 6 6 6 7 8 8 10 14 17 17 14 9 5 2 359 356 354 353 354 355 353 350 346 344 343 342 342 343 343 343 342 338 334 333 334 333 329 326 323 321 319 320 320 320 318 318 319 321 325 329 332 333 333 334 335 337 339 340 340 339 337 337 337 338 338 338 338 338 339 341 343 345 346 348 348 348 347 346 346
12 8 6 5 4 2 1 1 1 3 5 6 7 10 13 15 13 10 6 3 1 359 358 357 358 360 2 2 359 355 350 346 344 343 343 344 344 343 341 339 337 337 335 332 327 323 319 316 314 313 315 316 317 319 321 324 327 329 330 332 334 336 338 339 340 339 339 338 338 338 338 338 339 339 338 338 339 340 340 341 342 344 344 344 343 343
9 5 2 1 0 360 359 359 2 5 8 10 12 15 16 14 10 6 3 3 2 2 2 2 3 5 8 9 7 2 356 351 347 345 345 345 346 345 343 341 339 337 335 332 328 324 319 312 309 307 308 309 312 315 318 322 325 328 331 333 333 333 334 336 338 339 339 339 339 338 337 338 338 338 337 337 337 337 336 336 337 339 340 339 337 337
5 0 357 356 359 1 2 4 9 14 18 20 20 20 19 15 9 4 2 2 3 4 4 4 4 5 7 9 8 6 0 354 349 346 346 347 348 347 345 342 340 337 335 331 328 325 319 313 308 306 306 306 308 310 313 316 322 327 330 330 328 327 329 333 336 338 339 339 339 338 338 337 337 337 337 336 335 336 336 335 335 336 338 338 336 334
2 358 355 355 356 359 3 9 16 22 27 27 24 21 20 16 11 5 2 1 2 3 4 4 3 3 3 3 4 3 1 356 351 348 348 349 350 350 347 344 342 339 336 333 329 326 323 317 312 307 306 307 307 308 311 315 321 326 329 328 327 328 330 334 337 339 338 337 337 336 337 336 336 335 334 334 334 336 338 339 338 337 337 337 338 337
1 358 357 357 359 2 7 11 17 23 27 26 22 20 20 17 12 6 3 2 2 3 4 4 3 1 358 356 356 356 357 355 352 350 350 352 353 352 350 348 346 344 341 336 331 327 326 324 319 315 314 314 311 307 307 314 321 326 330 332 333 334 334 334 334 336 335 335 335 336 336 336 334 333 332 333 334 337 340 341 342 342 341 340 340 339
1 0 1 1 3 7 10 13 16 20 22 20 17 17 18 16 12 7 4 3 4 6 6 4 3 1 359 355 352 350 351 351 351 351 352 354 355 354 352 351 351 350 346 339 332 327 326 324 323 322 323 320 315 310 309 313 319 325 330 334 335 333 329 328 330 332 333 334 334 335 336 335 334 332 332 333 335 337 339 341 343 345 346 345 343 341
5 5 5 5 7 9 9 10 14 17 19 18 16 15 16 15 12 9 7 6 7 8 8 6 4 1 359 355 351 349 348 348 349 350 352 353 355 355 355 354 353 352 349 344 338 331 325 320 319 323 326 323 318 314 313 315 320 325 330 333 333 330 327 327 329 331 331 331 332 334 336 335 334 332 331 332 333 336 338 340 341 343 344 345 344 342
6 5 5 7 8 7 6 8 11 13 15 16 16 15 14 13 12 11 12 11 11 9 8 7 5 2 357 353 351 349 347 346 346 347 349 351 352 354 355 355 354 352 349 347 344 339 331 323 320 320 320 319 318 320 323 324 325 326 328 331 331 330 329 330 332 332 332 330 331 333 336 337 335 332 329 329 330 333 336 339 340 340 342 342 342 341
7 5 5 5 6 5 6 8 9 10 11 13 14 13 13 12 12 13 14 15 14 11 8 6 4 1 357 354 352 350 348 345 344 344 345 347 349 350 351 352 353 353 351 349 347 345 341 335 328 322 317 312 313 320 330 334 333 331 328 330 331 331 330 330 331 332 333 331 331 333 336 336 335 331 328 327 327 329 333 337 339 341 341 341 340 340
7 6 5 5 4 4 4 5 6 7 8 10 11 11 12 12 13 13 14 15 14 12 8 5 1 358 355 354 352 351 348 345 343 342 343 344 345 346 348 349 350 351 351 352 353 353 352 350 344 335 324 316 315 322 332 336 335 333 330 331 331 331 329 329 330 332 333 332 333 335 336 334 331 327 325 325 325 326 328 332 336 340 341 342 340 339
8 7 5 5 4 3 2 3 4 5 5 8 8 7 8 11 13 13 13 13 13 11 8 4 360 355 352 351 351 350 349 347 345 344 344 345 345 345 346 348 349 350 352 354 357 360 2 7 9 5 353 344 338 336 336 335 335 335 334 334 334 332 330 328 329 330 331 332 334 336 336 334 331 328 325 322 320 321 324 328 333 337 340 341 341 340
9 8 6 6 5 3 2 2 2 3 4 7 6 4 5 8 10 12 12 11 10 9 6 3 359 355 351 349 349 349 349 348 346 346 346 346 346 346 346 348 350 352 353 355 357 359 2 6 13 21 22 11 356 347 342 338 337 337 338 338 336 334 330 328 328 328 330 330 332 334 335 334 334 333 329 324 321 321 324 327 331 334 337 340 341 340
9 8 6 6 5 3 2 2 2 3 4 5 5 4 4 5 7 9 10 9 7 5 3 1 359 356 352 349 348 348 348 348 347 347 346 346 347 347 348 349 351 353 354 355 356 357 358 358 0 5 8 11 3 354 348 343 339 338 338 338 337 335 331 328 327 328 329 330 331 332 333 333 334 334 331 327 324 324 325 327 329 331 335 338 339 339